Location: El Bakhil
(32.7726°N, 5.5387°W)
Time: 02:21:46
(UTC+00:00)

HuskySat-1 - Visible Passes

Search period start: 10 December 2022 00:00
Search period end: 20 December 2022 00:00
Orbit: 358 x 373 km, 51.6° (Epoch: 09 December)

Date Brightness Start Highest point End Pass type
(mag) Time Alt. Az. Time Alt. Az. Time Alt. Az.
16 Dec ? 18:49:34 10° NNW 18:50:17 15° NNW 18:50:17 15° NNW visible
17 Dec ? 19:18:01 10° NW 19:18:51 17° WNW 19:18:51 17° WNW visible
18 Dec ? 18:11:08 10° NNW 18:13:55 36° NE 18:15:49 17° E visible
19 Dec ? 18:39:11 10° WNW 18:42:02 41° SW 18:44:50 10° SSE visible
